FW4606 Weather Reports


time (UTC)temp
C
wind
direction
speed
KPH
gust
KPH
rain 1hr
cm
rain 24hr
cm
rain mn
cm
humidity
%
barometer
mb
20260906190217 27 211 1.6 4.8 0.00 0.00 0.00 72 1018.4
20260906185716 26 111 0.0 4.8 0.00 0.00 0.00 74 1018.3
20260906185215 26 242 1.6 4.8 0.00 0.00 0.00 73 1018.3
20260906184713 26 351 1.6 4.8 0.00 0.00 0.00 73 1018.3
20260906184215 26 80 0.0 4.8 0.00 0.00 0.00 73 1018.2
20260906183714 27 43 1.6 6.4 0.00 0.00 0.00 72 1018.2
20260906183444 27 335 1.6 6.4 0.00 0.00 0.00 73 1018.3
20260906182716 27 222 1.6 6.4 0.00 0.00 0.00 73 1018.5
20260906182212 26 287 1.6 8.0 0.00 0.00 0.00 73 1018.6
20260906181712 27 172 1.6 8.0 0.00 0.00 0.00 73 1018.6
20260906181209 27 132 1.6 6.4 0.00 0.00 0.00 73 1018.6
20260906180704 27 117 1.6 6.4 0.00 0.00 0.00 72 1018.5
20260906180157 27 270 1.6 6.4 0.00 0.00 0.00 72 1018.4
20260906175651 27 160 1.6 6.4 0.00 0.00 0.00 71 1018.4
20260906175417 27 312 1.6 6.4 0.00 0.00 0.00 71 1018.4
20260906174640 27 197 1.6 11.3 0.00 0.00 0.00 72 1018.3
20260906174134 27 271 3.2 11.3 0.00 0.00 0.00 70 1018.5
20260906173628 27 174 3.2 6.4 0.00 0.00 0.00 72 1018.5
20260906173121 27 217 3.2 6.4 0.00 0.00 0.00 73 1018.5
20260906172616 27 84 1.6 6.4 0.00 0.00 0.00 73 1018.5
20260906172109 27 68 1.6 6.4 0.00 0.00 0.00 74 1018.6
20260906171604 27 119 1.6 9.7 0.00 0.00 0.00 74 1018.7
20260906171057 27 173 1.6 9.7 0.00 0.00 0.00 75 1018.8
20260906170826 26 219 1.6 6.4 0.00 0.00 0.00 76 1018.8
20260906170057 26 110 0.0 4.8 0.00 0.00 0.00 76 1018.9
20260906165556 26 298 1.6 6.4 0.00 0.00 0.00 77 1018.9
20260906165055 26 88 1.6 11.3 0.00 0.00 0.00 75 1018.9
20260906164555 26 226 1.6 11.3 0.00 0.00 0.00 77 1018.9
20260906164056 26 136 1.6 8.0 0.00 0.00 0.00 80 1018.9
20260906163556 25 129 1.6 8.0 0.00 0.00 0.00 80 1019.0
20260906163056 25 71 1.6 6.4 0.00 0.00 0.00 80 1019.1
20260906162557 25 8 1.6 6.4 0.00 0.00 0.00 80 1019.1
20260906162100 25 264 1.6 6.4 0.00 0.00 0.00 81 1019.1
20260906161554 25 257 0.0 4.8 0.00 0.00 0.00 81 1019.0
20260906161325 25 349 1.6 6.4 0.00 0.00 0.00 82 1019.0
20260906160555 25 259 1.6 6.4 0.00 0.00 0.00 81 1019.3
20260906160055 25 194 1.6 8.0 0.00 0.00 0.00 82 1019.4
20260906155553 25 141 1.6 8.0 0.00 0.00 0.00 80 1019.4
20260906155053 25 208 0.0 6.4 0.00 0.00 0.00 81 1019.5
20260906154553 25 236 0.0 6.4 0.00 0.00 0.00 80 1019.3
20260906154047 25 56 0.0 6.4 0.00 0.00 0.00 83 1019.3
20260906153547 25 134 0.0 6.4 0.00 0.00 0.00 82 1019.2
20260906153047 25 155 0.0 6.4 0.00 0.00 0.00 83 1019.3
20260906152550 25 113 0.0 6.4 0.00 0.00 0.00 83 1019.4
20260906152047 24 131 0.0 6.4 0.00 0.00 0.00 84 1019.6
20260906151546 24 63 0.0 4.8 0.00 0.00 0.00 85 1019.5
20260906151046 24 326 0.0 4.8 0.00 0.00 0.00 86 1019.4
20260906150546 24 103 0.0 4.8 0.00 0.00 0.00 85 1019.4
20260906150044 23 203 0.0 4.8 0.00 0.00 0.00 86 1019.3
20260906145544 23 122 0.0 4.8 0.00 0.00 0.00 85 1019.2
20260906145045 23 184 0.0 3.2 0.00 0.00 0.00 87 1019.1
20260906144542 23 264 0.0 8.0 0.00 0.00 0.00 87 1019.1
20260906144042 23 262 1.6 8.0 0.00 0.00 0.00 88 1019.2
20260906143542 23 179 1.6 6.4 0.00 0.00 0.00 89 1019.2
20260906143042 22 216 0.0 6.4 0.00 0.00 0.00 90 1019.2
20260906142541 22 157 1.6 6.4 0.00 0.00 0.00 91 1019.2
20260906142042 22 226 1.6 6.4 0.00 0.00 0.00 91 1019.3
20260906141546 22 195 1.6 6.4 0.00 0.00 0.00 92 1019.3
20260906141038 21 243 0.0 6.4 0.00 0.00 0.00 93 1019.3
20260906140545 21 195 0.0 4.8 0.00 0.00 0.00 94 1019.2
20260906140538 21 205 0.0 4.8 0.00 0.00 0.00 93 1019.2
20260906135537 21 314 0.0 4.8 0.00 0.00 0.00 95 1019.3
20260906135036 21 280 0.0 3.2 0.00 0.00 0.00 96 1019.2
20260906134536 21 302 0.0 4.8 0.00 0.00 0.00 96 1019.2
20260906134036 20 263 0.0 4.8 0.00 0.00 0.00 97 1019.1
20260906133535 20 108 0.0 4.8 0.00 0.00 0.00 97 1019.1
20260906133035 20 106 0.0 0.0 0.00 0.00 0.00 97 1019.0
20260906132535 20 136 0.0 1.6 0.00 0.00 0.00 97 1019.0
20260906132034 20 333 0.0 3.2 0.00 0.00 0.00 97 1019.0
20260906131532 20 333 0.0 3.2 0.00 0.00 0.00 97 1019.0
20260906131303 20 221 0.0 0.0 0.00 0.00 0.00 97 1018.9
20260906130801 20 46 0.0 0.0 0.00 0.00 0.00 97 1019.0
20260906130029 19 351 0.0 0.0 0.00 0.00 0.00 97 1019.0
20260906125530 19 350 0.0 0.0 0.00 0.00 0.00 97 1019.1
20260906125030 19 350 0.0 0.0 0.00 0.00 0.00 97 1019.0
20260906124528 19 351 0.0 0.0 0.00 0.00 0.00 97 1019.0
20260906124028 19 22 0.0 0.0 0.00 0.00 0.00 97 1019.0
20260906123759 18 24 0.0 0.0 0.00 0.00 0.00 97 1019.0
20260906123026 18 25 0.0 0.0 0.00 0.00 0.00 97 1019.0
20260906122534 18 25 0.0 0.0 0.00 0.00 0.00 97 1019.0
20260906122529 18 24 0.0 0.0 0.00 0.00 0.00 97 1019.0
20260906121522 18 25 0.0 0.0 0.00 0.00 0.00 97 1018.9
20260906121019 18 24 0.0 0.0 0.00 0.00 0.00 97 1018.9
20260906120518 18 24 0.0 0.0 0.00 0.00 0.00 97 1018.8
20260906120017 18 25 0.0 0.0 0.00 0.00 0.00 96 1018.8
20260906115518 18 25 0.0 0.0 0.00 0.00 0.00 96 1018.7
20260906115016 18 24 0.0 0.0 0.00 0.00 0.00 96 1018.7
20260906114516 18 25 0.0 0.0 0.00 0.00 0.00 96 1018.7
20260906114017 18 24 0.0 0.0 0.00 0.00 0.00 97 1018.7
20260906113513 18 25 0.0 0.0 0.00 0.00 0.00 97 1018.7
20260906113246 18 24 0.0 0.0 0.00 0.00 0.00 97 1018.6
20260906112511 18 24 0.0 0.0 0.00 0.00 0.00 97 1018.6
20260906112010 18 25 0.0 0.0 0.00 0.00 0.00 97 1018.5
20260906111511 18 24 0.0 0.0 0.00 0.00 0.00 96 1018.5
20260906111011 18 24 0.0 0.0 0.00 0.00 0.00 96 1018.4
20260906110509 18 25 0.0 0.0 0.00 0.00 0.00 97 1018.4
20260906110010 18 24 0.0 0.0 0.00 0.00 0.00 97 1018.3
20260906105510 18 26 0.0 0.0 0.00 0.00 0.00 96 1018.3
20260906105010 18 122 0.0 0.0 0.00 0.00 0.00 96 1018.3
20260906104510 18 121 0.0 0.0 0.00 0.00 0.00 96 1018.3
20260906104007 18 122 0.0 0.0 0.00 0.00 0.00 96 1018.3
20260906103506 18 121 0.0 0.0 0.00 0.00 0.00 96 1018.3
20260906103006 18 120 0.0 0.0 0.00 0.00 0.00 96 1018.3
20260906102505 18 121 0.0 0.0 0.00 0.00 0.00 96 1018.3
20260906102005 18 120 0.0 0.0 0.00 0.00 0.00 95 1018.3
20260906101505 18 121 0.0 0.0 0.00 0.00 0.00 95 1018.1
20260906101007 18 122 0.0 0.0 0.00 0.00 0.00 95 1018.2
20260906100505 18 120 0.0 0.0 0.00 0.00 0.00 95 1018.2
20260906100007 18 120 0.0 0.0 0.00 0.00 0.00 95 1018.2
20260906095501 18 120 0.0 0.0 0.00 0.00 0.00 95 1018.0
20260906095003 18 120 0.0 0.0 0.00 0.00 0.00 95 1017.8
20260906094502 19 120 0.0 0.0 0.00 0.00 0.00 95 1017.7
20260906094237 19 120 0.0 0.0 0.00 0.00 0.00 95 1017.7
20260906093503 19 120 0.0 0.0 0.00 0.00 0.00 95 1017.6
20260906093003 19 120 0.0 0.0 0.00 0.00 0.00 95 1017.6
20260906092502 19 120 0.0 0.0 0.00 0.00 0.00 95 1017.6
20260906092002 19 120 0.0 0.0 0.00 0.00 0.00 95 1017.5
20260906091503 19 120 0.0 0.0 0.00 0.00 0.00 95 1017.4
20260906090959 19 120 0.0 0.0 0.00 0.00 0.00 95 1017.4
20260906090458 20 121 0.0 0.0 0.00 0.00 0.00 94 1017.5
20260906085958 20 121 0.0 0.0 0.00 0.00 0.00 94 1017.4
20260906085458 20 122 0.0 0.0 0.00 0.00 0.00 95 1017.5
20260906084959 20 120 0.0 0.0 0.00 0.00 0.00 95 1017.6
20260906084458 20 26 0.0 0.0 0.00 0.00 0.00 95 1017.5
20260906083957 20 26 0.0 0.0 0.00 0.00 0.00 95 1017.4
20260906083459 20 32 0.0 0.0 0.00 0.00 0.00 95 1017.3
20260906082958 20 32 0.0 0.0 0.00 0.00 0.00 94 1017.4
20260906082454 20 32 0.0 0.0 0.00 0.00 0.00 94 1017.4
20260906082224 20 32 0.0 0.0 0.00 0.00 0.00 94 1017.4
20260906081726 20 30 0.0 0.0 0.00 0.00 0.00 94 1017.5
20260906081618 20 30 0.0 0.0 0.00 0.00 0.00 94 1017.6
20260906080724 20 29 0.0 0.0 0.00 0.00 0.00 94 1017.5
20260906075953 20 30 0.0 0.0 0.00 0.00 0.00 94 1017.5
20260906075454 20 30 0.0 0.0 0.00 0.00 0.00 93 1017.5
20260906074953 20 30 0.0 0.0 0.00 0.00 0.00 93 1017.6
20260906074455 20 30 0.0 0.0 0.00 0.00 0.00 93 1017.5
20260906073954 20 30 0.0 0.0 0.00 0.00 0.00 93 1017.5
20260906073724 20 30 0.0 0.0 0.00 0.00 0.00 93 1017.5
20260906072954 20 30 0.0 0.0 0.00 0.00 0.00 92 1017.6
20260906072455 20 30 0.0 0.0 0.00 0.00 0.00 92 1017.5
20260906072224 20 30 0.0 0.0 0.00 0.00 0.00 92 1017.6
20260906071727 20 30 0.0 0.0 0.00 0.00 0.00 92 1017.8
20260906070953 21 30 0.0 0.0 0.00 0.00 0.00 92 1017.8
20260906070449 21 30 0.0 0.0 0.00 0.00 0.00 92 1017.8
20260906065949 21 30 0.0 0.0 0.00 0.00 0.00 92 1017.8
20260906065448 21 30 0.0 1.6 0.00 0.00 0.00 92 1017.8
20260906064945 21 30 0.0 1.6 0.00 0.00 0.00 92 1017.9
20260906064441 21 0 0.0 0.0 0.00 0.00 0.00 92 1018.0
20260906063942 21 359 0.0 0.0 0.00 0.00 0.00 92 1017.9
20260906063441 21 0 0.0 0.0 0.00 0.00 0.00 92 1018.0
20260906062941 21 338 0.0 1.6 0.00 0.00 0.00 92 1017.9
20260906062441 20 338 0.0 1.6 0.00 0.00 0.00 93 1017.8
20260906061941 20 79 0.0 0.0 0.00 0.00 0.00 92 1017.7
20260906061440 20 79 0.0 0.0 0.00 0.00 0.00 92 1017.8
20260906060938 21 79 0.0 0.0 0.00 0.00 0.00 91 1017.8
20260906060435 21 79 0.0 1.6 0.00 0.00 0.00 91 1017.8
20260906060205 21 79 0.0 1.6 0.00 0.00 0.00 92 1017.9
20260906055433 21 79 0.0 1.6 0.00 0.00 0.00 92 1017.8
20260906054930 20 85 0.0 0.0 0.00 0.00 0.00 91 1017.8
20260906054430 20 86 0.0 0.0 0.00 0.00 0.00 90 1017.8
20260906053928 21 86 0.0 0.0 0.00 0.00 0.00 90 1017.8
20260906053703 21 86 0.0 0.0 0.00 0.00 0.00 90 1017.8
20260906052933 21 85 0.0 0.0 0.00 0.00 0.00 90 1017.9
20260906052928 21 86 0.0 0.0 0.00 0.00 0.00 90 1017.9
20260906051924 21 85 0.0 0.0 0.00 0.00 0.00 90 1017.8
20260906051423 21 85 0.0 0.0 0.00 0.00 0.00 90 1017.8
20260906050918 21 84 0.0 0.0 0.00 0.00 0.00 90 1017.8
20260906050412 21 84 0.0 0.0 0.00 0.00 0.00 90 1017.8
20260906045905 21 85 0.0 0.0 0.00 0.00 0.00 90 1017.8
20260906045359 21 85 0.0 0.0 0.00 0.00 0.00 90 1017.8
20260906045125 21 85 0.0 0.0 0.00 0.00 0.00 90 1017.8
20260906044619 21 85 0.0 0.0 0.00 0.00 0.00 89 1017.9
20260906043841 21 85 0.0 0.0 0.00 0.00 0.00 88 1017.9
20260906043335 22 85 0.0 0.0 0.00 0.00 0.00 88 1018.0
20260906042829 22 84 0.0 0.0 0.00 0.00 0.00 88 1017.9
20260906042323 22 84 0.0 0.0 0.00 0.00 0.00 88 1017.9
20260906041817 22 84 0.0 0.0 0.00 0.00 0.00 88 1018.0
20260906041311 22 85 0.0 0.0 0.00 0.00 0.00 88 1018.0
20260906040804 22 84 0.0 0.0 0.00 0.00 0.00 88 1018.0
20260906040259 21 85 0.0 0.0 0.00 0.00 0.00 88 1017.9
20260906035753 21 85 0.0 0.0 0.00 0.00 0.00 87 1017.9
20260906035247 22 85 0.0 0.0 0.00 0.00 0.00 87 1017.9
20260906035013 22 84 0.0 0.0 0.00 0.00 0.00 87 1017.9
20260906034235 22 85 0.0 0.0 0.00 0.00 0.00 86 1017.9
20260906033729 22 84 0.0 0.0 0.00 0.00 0.00 86 1018.0
20260906033222 22 85 0.0 0.0 0.00 0.00 0.00 85 1018.0
20260906032717 22 84 0.0 0.0 0.00 0.00 0.00 85 1018.2
20260906032210 22 84 0.0 0.0 0.00 0.00 0.00 85 1018.2
20260906031937 22 85 0.0 0.0 0.00 0.00 0.00 84 1018.1
20260906031159 23 85 0.0 0.0 0.00 0.00 0.00 83 1018.2
20260906030653 23 85 0.0 0.0 0.00 0.00 0.00 82 1018.2
20260906030417 23 84 0.0 0.0 0.00 0.00 0.00 82 1018.2
20260906025641 23 85 0.0 0.0 0.00 0.00 0.00 82 1018.1
20260906025136 23 86 0.0 0.0 0.00 0.00 0.00 81 1018.0
20260906024629 23 86 0.0 0.0 0.00 0.00 0.00 81 1018.2
20260906024123 23 86 0.0 0.0 0.00 0.00 0.00 81 1018.2
20260906023616 23 86 0.0 0.0 0.00 0.00 0.00 81 1018.2
20260906023110 23 85 0.0 0.0 0.00 0.00 0.00 80 1018.0
20260906022604 23 84 0.0 0.0 0.00 0.00 0.00 80 1017.9
20260906022105 23 86 0.0 0.0 0.00 0.00 0.00 80 1017.8
20260906021605 23 85 0.0 0.0 0.00 0.00 0.00 80 1017.8
20260906021105 23 85 0.0 0.0 0.00 0.00 0.00 80 1017.6
20260906020605 24 85 0.0 0.0 0.00 0.00 0.00 80 1017.5
20260906020337 24 85 0.0 0.0 0.00 0.00 0.00 79 1017.1
20260906015603 24 85 0.0 0.0 0.00 0.00 0.00 79 1016.9
20260906015107 24 85 0.0 0.0 0.00 0.00 0.00 78 1016.9
20260906014604 24 84 0.0 0.0 0.00 0.00 0.00 78 1016.8
20260906014335 25 85 0.0 1.6 0.00 0.00 0.00 77 1016.6
20260906013602 25 85 0.0 1.6 0.00 0.00 0.00 77 1016.4
20260906013104 25 15 0.0 1.6 0.00 0.00 0.00 77 1016.3
20260906012603 25 15 0.0 0.0 0.00 0.00 0.00 77 1016.3
20260906012336 25 117 0.0 0.0 0.00 0.00 0.00 77 1016.2
20260906011603 25 119 0.0 0.0 0.00 0.00 0.00 77 1016.1
20260906011103 25 118 0.0 0.0 0.00 0.00 0.00 76 1016.0
20260906010602 25 118 0.0 0.0 0.00 0.00 0.00 76 1016.0
20260906010106 25 118 0.0 0.0 0.00 0.00 0.00 76 1015.9
20260906005600 25 117 0.0 0.0 0.00 0.00 0.00 76 1015.7
20260906005054 25 117 0.0 0.0 0.00 0.00 0.00 75 1015.6
20260906004548 26 119 0.0 0.0 0.00 0.00 0.00 74 1015.5
20260906004042 26 119 0.0 0.0 0.00 0.00 0.00 74 1015.5
20260906003535 26 131 0.0 0.0 0.00 0.00 0.00 73 1015.4
20260906003029 26 131 0.0 0.0 0.00 0.00 0.00 72 1015.4
20260906002523 26 131 0.0 0.0 0.00 0.00 0.00 71 1015.3
20260906002018 26 131 0.0 1.6 0.00 0.00 0.00 71 1015.3
20260906001744 26 131 0.0 3.2 0.00 0.00 0.00 70 1015.2
20260906001005 27 358 0.0 3.2 0.00 0.00 0.00 69 1015.0
20260906000500 27 4 0.0 3.2 0.00 0.00 0.00 69 1015.0
20260906000226 27 333 0.0 3.2 0.00 0.00 0.00 68 1015.1
20260905235448 27 267 0.0 3.2 0.00 0.00 0.00 68 1015.2
20260905234942 27 70 0.0 4.8 0.00 0.00 0.00 67 1015.3
20260905234436 27 82 0.0 4.8 0.00 0.00 0.00 68 1015.4
20260905233930 28 91 0.0 4.8 0.00 0.00 0.00 67 1015.4
20260905233423 28 33 0.0 4.8 0.00 0.00 0.00 66 1015.4
20260905232923 28 86 0.0 6.4 0.00 0.00 0.00 66 1015.3
20260905232917 28 99 0.0 6.4 0.00 0.00 0.00 66 1015.4
20260905231906 29 351 0.0 4.8 0.00 0.00 0.00 65 1015.3
20260905231631 28 338 1.6 6.4 0.00 0.00 0.00 66 1015.2
20260905230854 28 94 1.6 6.4 0.00 0.00 0.00 67 1015.2
20260905230618 28 356 1.6 6.4 0.00 0.00 0.00 66 1015.2
20260905225841 29 352 0.0 3.2 0.00 0.00 0.00 67 1015.2
20260905225607 29 5 1.6 4.8 0.00 0.00 0.00 67 1015.0
20260905224830 29 356 1.6 8.0 0.00 0.00 0.00 66 1014.8
20260905224324 29 61 1.6 8.0 0.00 0.00 0.00 66 1014.8
20260905224053 29 336 1.6 6.4 0.00 0.00 0.00 65 1014.8
20260905223321 29 332 1.6 8.0 0.00 0.00 0.00 66 1015.0
20260905222820 29 136 1.6 8.0 0.00 0.00 0.00 66 1015.1
20260905222320 30 350 1.6 4.8 0.00 0.00 0.00 64 1015.0
20260905221821 30 347 1.6 8.0 0.00 0.00 0.00 64 1015.1
20260905221321 30 4 1.6 8.0 0.00 0.00 0.00 65 1015.2
20260905220820 30 58 1.6 6.4 0.00 0.00 0.00 64 1015.4
20260905220548 30 4 1.6 6.4 0.00 0.00 0.00 66 1015.4
20260905215819 30 352 1.6 6.4 0.00 0.00 0.00 63 1015.3
20260905215317 30 6 1.6 9.7 0.00 0.00 0.00 62 1015.3
20260905214818 30 135 1.6 9.7 0.00 0.00 0.00 63 1015.4
20260905214316 30 0 1.6 6.4 0.00 0.00 0.00 66 1015.3
20260905213816 30 9 1.6 9.7 0.00 0.00 0.00 65 1015.3
20260905213316 30 82 0.0 9.7 0.00 0.00 0.00 66 1015.3
20260905212816 29 120 1.6 4.8 0.00 0.00 0.00 67 1015.3
20260905212317 29 18 1.6 6.4 0.00 0.00 0.00 68 1015.4
20260905211817 29 350 1.6 6.4 0.00 0.00 0.00 67 1015.5
20260905211311 29 6 1.6 6.4 0.00 0.00 0.00 67 1015.7
20260905210804 29 143 1.6 6.4 0.00 0.00 0.00 69 1015.8
20260905210259 29 0 1.6 6.4 0.00 0.00 0.00 70 1015.9
20260905205753 29 242 1.6 6.4 0.00 0.00 0.00 69 1016.0
20260905205247 29 326 1.6 6.4 0.00 0.00 0.00 68 1016.0
20260905205011 29 44 0.0 6.4 0.00 0.00 0.00 69 1016.1
20260905204235 28 164 1.6 6.4 0.00 0.00 0.00 70 1016.3
20260905203728 28 43 1.6 6.4 0.00 0.00 0.00 70 1016.3
20260905203225 28 328 1.6 6.4 0.00 0.00 0.00 70 1016.5
20260905203220 28 34 1.6 9.7 0.00 0.00 0.00 70 1016.6
20260905202211 28 18 1.6 9.7 0.00 0.00 0.00 70 1016.6
20260905201704 28 153 1.6 4.8 0.00 0.00 0.00 70 1016.6
20260905201159 28 353 1.6 4.8 0.00 0.00 0.00 69 1016.8
20260905200925 28 71 0.0 6.4 0.00 0.00 0.00 72 1016.9
20260905200648 28 359 1.6 6.4 0.00 0.00 0.00 69 1017.1
20260905195640 28 12 1.6 4.8 0.00 0.00 0.00 68 1017.3
20260905195135 28 51 0.0 3.2 0.00 0.00 0.00 71 1017.1
20260905194628 28 65 0.0 4.8 0.00 0.00 0.00 71 1017.3
20260905194123 28 232 1.6 4.8 0.00 0.00 0.00 70 1017.4
20260905193617 28 1 1.6 4.8 0.00 0.00 0.00 71 1017.4
20260905193112 27 125 0.0 3.2 0.00 0.00 0.00 70 1017.4
20260905192605 28 351 0.0 4.8 0.00 0.00 0.00 73 1017.4
20260905192059 27 108 0.0 4.8 0.00 0.00 0.00 75 1017.5
20260905191559 27 336 0.0 3.2 0.00 0.00 0.00 75 1017.5
20260905191059 27 335 0.0 3.2 0.00 0.00 0.00 73 1017.5